Location: Allie Creek
(37.5926°N, 89.8526°W)
Time: 17:59:38
(UTC+00:00)

USA 281 - Visible Passes

Search period start: 16 April 2024 00:00
Search period end: 26 April 2024 00:00
Orbit: 1077 x 1081 km, 106.0° (Epoch: 12 April)

Date Brightness Start Highest point End Pass type
(mag) Time Alt. Az. Time Alt. Az. Time Alt. Az.
16 Apr 3.3 02:04:59 25° SE 02:08:54 60° ENE 02:15:22 10° NNW visible
16 Apr 4.9 03:51:51 20° SW 03:53:41 23° WSW 03:58:43 10° NW visible
17 Apr 4.3 01:14:25 10° ESE 01:19:40 26° NE 01:24:56 10° N visible
17 Apr 3.6 03:01:07 36° S 03:03:43 58° WSW 03:10:12 10° NNW visible
18 Apr 3.3 02:10:23 26° SE 02:14:05 61° ENE 02:20:33 10° NNW visible
18 Apr 4.8 03:57:14 21° WSW 03:58:53 23° WSW 04:03:53 10° NW visible
19 Apr 4.3 01:19:38 10° ESE 01:24:52 27° NE 01:30:08 10° N visible
19 Apr 3.6 03:06:30 38° SSW 03:08:54 58° WSW 03:15:23 10° NNW visible
20 Apr 3.3 02:15:45 28° SE 02:19:17 61° ENE 02:25:44 10° NNW visible
20 Apr 4.8 04:02:37 21° WSW 04:04:04 23° WSW 04:09:04 10° NW visible
21 Apr 4.3 01:25:00 11° ESE 01:30:03 27° NE 01:35:20 10° N visible
21 Apr 3.6 03:11:51 39° SSW 03:14:05 57° WSW 03:20:34 10° NNW visible
22 Apr 3.3 02:21:06 29° SE 02:24:28 61° ENE 02:30:56 10° NNW visible
22 Apr 4.8 04:07:58 21° WSW 04:09:16 22° WSW 04:14:14 10° NW visible
23 Apr 4.3 01:30:20 12° ESE 01:35:14 27° NE 01:40:31 10° N visible
23 Apr 3.6 03:17:12 41° SSW 03:19:16 57° WSW 03:25:45 10° NNW visible
24 Apr 3.3 02:26:27 31° SE 02:29:39 62° ENE 02:36:07 10° NNW visible
24 Apr 4.8 04:13:18 21° WSW 04:14:27 22° WSW 04:19:25 10° NW visible
25 Apr 4.3 01:35:40 12° ESE 01:40:25 27° NE 01:45:44 10° N visible
25 Apr 3.6 03:22:33 42° SSW 03:24:28 57° WSW 03:30:56 10° NNW visible
